Theta_e
307 299 296 296 299 300 302 302 302 299 300 297 296 295 294 293 291 291 293 294 296 295 293 294 294 294 297 298 298 298 297 297 299 300 301 302 301 300 300 300 301 300 301 304 304 305 309 315 319 320 321 321 321 320 320 319 319 319 319 319 319 319 320 320 321 321 321 320 319 318 318 318 318 318 318 318 319 319 319 319 319 318 317 317 316 316
306 297 297 300 302 302 302 302 301 301 299 297 293 293 293 292 292 293 295 294 294 294 290 292 293 294 296 298 298 298 296 297 299 300 301 301 302 301 301 301 301 301 300 300 301 301 305 311 315 318 319 318 319 320 320 319 319 319 320 319 320 320 319 320 321 321 321 321 321 320 319 319 319 318 317 318 319 319 319 319 319 318 318 318 317 316
296 295 299 301 302 303 301 301 301 300 298 298 295 292 290 291 290 294 294 293 292 294 292 292 291 294 296 298 299 298 298 300 302 302 302 302 302 301 301 301 300 299 299 300 300 301 302 307 311 315 318 319 321 321 321 320 320 319 319 320 320 320 320 320 321 321 320 321 321 321 320 320 319 320 320 320 320 320 319 319 319 319 319 318 318 317
288 292 299 304 303 301 299 301 301 300 299 296 295 293 292 294 292 289 294 291 291 294 288 287 288 291 294 296 296 298 298 299 302 302 301 301 301 302 302 302 302 300 300 300 301 301 300 304 309 312 315 318 320 320 321 320 320 320 319 320 320 320 320 321 321 319 321 321 321 321 321 321 321 319 319 319 317 318 318 318 318 318 319 319 319 318
291 299 304 304 302 302 299 299 299 298 297 297 296 294 294 292 295 294 293 290 290 291 291 290 291 293 295 295 298 299 298 298 299 300 299 300 300 302 302 302 302 302 302 302 302 302 300 300 304 309 314 317 318 320 321 321 321 321 320 320 320 320 320 321 320 320 320 319 318 318 314 315 314 314 313 314 316 317 317 317 317 317 318 319 319 319
294 299 304 302 301 301 300 296 297 298 295 297 296 295 296 295 295 294 293 293 290 288 289 291 286 290 290 295 297 299 294 293 295 295 297 299 300 300 300 301 302 302 302 303 303 304 303 301 302 305 310 314 317 318 320 322 323 322 322 321 321 321 321 321 321 320 320 319 319 317 317 315 315 316 315 315 316 316 316 317 319 318 317 318 319 319
295 300 301 300 300 299 299 298 298 298 295 294 296 297 294 294 294 293 291 295 288 288 290 289 289 288 288 290 291 293 291 294 296 294 297 299 300 299 300 301 302 302 303 303 303 303 302 301 301 303 307 312 315 317 320 321 322 323 323 322 321 321 321 321 321 321 319 319 319 319 318 318 318 317 318 319 319 319 319 319 318 319 317 318 318 318
298 298 298 300 300 298 296 296 299 299 296 293 296 297 295 294 292 292 293 293 292 292 292 288 289 285 287 293 292 293 294 296 297 298 297 297 298 298 299 300 301 302 303 303 303 304 304 304 303 303 305 309 313 316 318 320 321 322 322 322 322 321 320 322 322 321 320 320 319 319 318 318 319 318 319 318 319 319 318 318 318 318 318 317 318 318
297 295 296 295 297 297 295 299 300 301 296 294 296 299 295 295 293 292 292 288 287 289 288 288 287 284 285 286 291 295 294 295 295 297 300 302 303 302 300 300 300 301 302 302 303 304 304 305 304 304 304 307 311 314 316 318 320 321 322 322 322 322 321 321 321 320 320 320 320 319 319 318 318 320 319 318 317 318 316 317 317 317 318 318 318 318
298 298 298 298 296 294 299 301 301 301 297 296 296 297 295 292 290 292 287 288 289 288 286 289 288 286 288 290 288 287 288 292 293 296 299 300 301 302 302 302 302 300 299 300 301 302 303 303 304 305 305 305 308 313 315 317 319 320 321 321 321 322 322 322 321 320 320 320 319 319 319 319 319 318 318 315 316 315 315 316 317 317 317 318 317 317
297 301 302 299 296 298 300 301 302 302 299 298 299 297 292 287 285 284 284 286 287 284 287 293 289 289 285 289 290 289 290 292 294 295 297 298 300 301 301 301 302 301 299 299 299 300 301 302 303 303 303 304 306 310 313 315 317 319 319 320 321 322 323 322 321 320 320 320 320 320 320 319 319 319 318 317 317 315 314 315 316 316 316 316 317 317
298 300 298 298 303 302 303 297 298 301 299 299 292 291 292 289 289 288 286 287 285 284 290 293 289 290 284 286 288 293 291 290 295 295 296 298 299 300 300 301 300 298 298 298 297 298 299 299 299 298 300 302 304 306 310 314 316 317 318 319 320 321 322 322 322 321 320 320 320 320 320 320 320 320 319 318 318 317 316 316 316 315 315 315 316 317
292 295 298 298 302 303 297 297 295 298 298 297 294 294 288 285 287 282 286 282 283 283 287 286 290 285 287 293 288 288 292 294 292 294 297 298 299 300 299 298 297 295 294 295 296 297 297 298 299 298 299 299 301 304 308 312 314 316 317 318 319 320 321 322 322 321 320 320 320 320 320 320 320 320 320 320 319 319 318 317 316 315 315 316 315 316
290 296 297 297 299 302 301 294 291 292 295 295 293 290 287 283 282 280 284 285 286 286 291 285 287 286 293 295 299 299 300 299 297 297 296 298 300 299 298 296 297 297 294 295 295 295 296 297 298 298 298 299 300 302 306 309 312 315 316 317 318 319 320 321 321 321 320 320 320 320 320 320 320 320 320 321 320 320 320 319 318 318 318 317 317 317
284 284 291 296 292 302 300 299 297 295 295 295 296 294 288 287 283 280 283 280 282 285 283 285 287 283 286 289 289 291 295 298 298 294 296 296 295 297 297 296 296 296 298 297 296 297 297 298 298 298 298 298 299 301 304 308 311 313 315 316 317 318 319 320 320 321 321 321 321 321 321 321 321 320 320 321 321 321 320 320 320 319 319 319 319 318
287 288 295 301 299 302 298 302 300 296 293 296 295 296 290 287 288 284 283 285 285 282 279 278 282 286 291 292 294 293 290 292 293 293 294 296 298 297 295 295 296 297 297 297 297 297 296 297 297 297 297 298 298 300 302 306 310 312 314 315 317 317 318 319 319 320 321 321 322 321 321 321 320 319 320 320 320 321 322 321 321 321 320 321 320 319
287 285 293 299 300 300 300 302 299 301 287 293 295 289 292 297 292 286 285 284 283 280 282 280 282 285 290 295 298 298 296 296 295 295 294 295 296 295 294 296 296 295 295 295 295 296 296 295 295 296 297 297 297 298 301 305 309 311 313 314 315 316 317 318 319 320 321 321 320 320 321 321 321 320 320 321 321 321 321 322 322 322 322 321 321 320
287 287 294 295 294 300 304 303 301 301 298 294 289 294 296 296 294 290 283 280 279 280 281 285 285 286 283 284 287 291 294 296 296 297 297 296 295 294 295 295 295 295 295 294 293 294 294 295 295 295 295 296 297 299 300 303 306 310 312 313 314 315 316 317 318 319 320 320 320 320 320 321 321 322 321 321 321 321 320 321 322 322 321 321 321 321
289 285 286 295 297 298 299 299 296 299 297 296 293 300 292 285 286 285 286 279 278 278 279 281 285 286 285 288 287 287 289 293 295 298 298 297 296 296 295 294 294 294 294 293 293 293 292 293 294 294 295 295 295 296 299 301 304 307 309 312 314 314 316 316 318 318 319 320 320 321 320 320 321 322 322 322 321 320 320 320 321 321 322 321 320 319
290 283 283 291 294 295 298 297 287 293 298 294 297 296 295 292 288 286 287 286 284 280 277 281 282 282 289 290 293 292 290 292 294 295 296 298 298 298 298 295 293 294 294 294 293 293 292 292 293 293 294 294 293 293 294 296 298 305 308 309 311 312 313 313 314 315 316 317 319 319 319 319 320 320 321 321 321 321 321 321 320 320 320 321 318 321
287 288 281 285 292 295 286 294 292 294 291 291 292 290 290 289 290 289 288 286 283 283 281 277 280 281 288 291 290 292 292 293 294 295 296 297 298 298 298 297 295 294 294 294 294 294 293 292 291 290 290 290 288 288 289 293 297 303 303 307 309 311 311 311 313 314 316 316 316 316 317 317 318 319 320 320 320 319 320 320 318 320 320 318 321 320
286 285 283 286 288 288 292 297 298 297 297 294 293 291 293 290 286 285 283 289 284 283 278 278 280 288 288 288 294 293 294 294 295 296 297 297 297 297 296 295 294 294 295 295 295 294 293 291 290 289 287 285 285 288 289 291 291 294 300 306 307 307 309 310 311 312 314 313 315 315 316 316 316 317 317 317 318 317 319 319 319 320 319 320 321 319
292 286 288 284 285 290 295 295 293 294 296 297 296 293 296 294 292 287 283 284 286 287 285 280 278 286 296 290 292 295 295 295 296 295 296 297 296 296 296 291 293 292 293 294 294 293 291 290 289 287 286 287 288 289 288 288 290 293 295 297 300 305 307 308 309 309 310 311 311 313 314 313 313 312 312 314 316 315 316 317 315 314 317 318 318 316
295 285 285 287 288 288 293 293 295 293 294 292 295 293 294 292 293 291 290 289 286 286 285 283 281 287 296 289 292 293 292 295 296 295 295 296 296 296 295 291 291 292 291 290 289 289 289 288 286 285 287 289 288 288 289 290 289 290 290 293 294 299 301 300 303 304 306 308 309 310 308 309 308 306 307 309 312 312 313 313 311 310 314 317 316 315
289 286 288 284 283 284 285 287 290 289 291 289 292 295 296 296 296 293 288 284 285 286 287 285 280 286 296 289 289 289 291 291 292 293 292 293 295 295 295 295 292 291 291 291 290 289 288 287 288 290 290 289 289 287 287 289 290 290 291 289 292 294 294 296 295 298 301 302 304 302 304 305 304 306 306 308 309 309 309 309 309 308 311 313 314 316
290 288 287 280 277 275 275 276 280 284 287 290 293 294 295 294 294 291 287 288 284 288 288 285 286 292 297 289 288 286 288 289 290 290 290 289 291 294 295 296 294 292 291 291 290 289 289 290 289 288 288 288 288 289 290 290 290 289 290 290 289 291 289 290 288 295 298 298 301 302 301 303 303 305 306 306 306 306 306 306 307 309 308 310 315 313
283 288 289 286 283 281 283 285 289 290 287 286 289 293 293 294 295 294 292 288 285 288 287 289 290 291 293 295 296 291 286 288 291 291 292 294 293 292 292 293 294 293 290 290 289 289 288 289 291 291 289 289 287 287 288 288 290 289 289 289 288 287 287 287 288 291 294 295 298 301 302 303 304 304 305 305 305 302 301 303 302 304 307 305 309 311
282 284 287 287 287 287 288 287 288 291 288 289 290 291 293 293 293 291 289 287 293 288 284 290 292 290 292 295 296 295 287 288 289 290 292 292 293 294 296 293 292 290 290 287 287 288 290 292 292 291 290 288 288 287 287 287 287 289 289 290 288 286 286 286 287 288 291 293 294 297 299 300 299 299 300 299 299 299 298 298 298 300 300 299 303 304
286 286 288 288 287 289 290 289 283 287 289 290 290 291 291 293 293 289 290 293 293 288 286 292 292 290 293 296 297 298 292 292 291 293 294 295 293 291 290 292 293 291 290 289 290 290 290 291 293 293 292 291 287 287 288 287 287 286 286 286 287 286 287 286 288 289 289 291 292 294 294 294 294 295 296 295 296 296 297 298 298 297 298 299 302 302
287 286 288 288 287 288 289 289 286 284 286 287 289 290 292 292 292 293 293 294 293 292 293 294 293 293 296 297 298 300 293 291 292 293 291 290 291 291 289 291 292 293 292 292 292 292 292 292 293 292 290 288 289 289 288 288 288 288 288 288 287 287 287 287 288 291 290 291 292 292 293 294 294 295 295 296 297 297 295 294 293 293 294 296 296 297
289 286 290 287 284 285 288 289 289 288 288 287 288 288 290 291 293 294 294 294 294 293 294 294 293 292 298 300 300 293 290 291 291 290 291 291 289 290 291 292 293 295 294 294 293 292 292 292 291 289 290 290 291 291 291 291 290 288 287 287 288 289 289 288 289 291 292 292 292 292 292 293 294 294 295 296 294 292 293 293 291 291 292 291 292 293
288 285 289 285 282 283 286 286 287 287 287 287 287 288 287 287 285 289 290 294 292 290 292 292 291 292 298 301 301 293 292 293 294 293 292 291 291 290 291 293 294 295 296 295 293 292 292 292 291 290 291 291 291 291 291 291 290 288 289 288 288 289 289 289 291 292 292 292 292 292 292 293 293 293 294 292 293 292 290 289 290 291 290 290 290 290
287 285 284 285 281 281 286 286 285 285 284 282 284 287 289 290 291 291 293 295 294 295 291 288 290 297 299 299 296 298 299 298 296 294 293 292 291 291 292 294 295 296 296 293 293 293 293 293 292 291 291 290 292 292 292 293 290 291 292 291 289 289 290 289 291 292 293 292 292 292 292 292 292 293 292 292 291 289 289 289 289 289 290 291 289 289
288 287 285 287 281 282 285 285 283 281 275 277 291 293 292 289 290 289 289 292 293 295 293 297 297 299 299 299 298 299 299 300 298 297 297 297 297 294 292 292 293 293 293 292 293 293 294 292 291 291 291 292 293 292 291 290 292 292 291 289 288 290 291 290 291 293 293 292 292 292 291 291 292 292 292 291 290 289 289 290 290 288 288 288 287 290
287 287 286 287 283 281 284 282 279 275 277 294 295 295 295 294 293 291 291 293 294 295 296 296 297 298 299 300 300 301 301 301 297 297 297 297 297 298 298 297 294 293 293 293 293 292 292 293 293 292 290 290 291 290 289 289 290 288 288 288 289 290 291 292 292 292 293 292 292 291 292 292 292 292 291 290 290 290 290 290 288 288 288 289 290 290
286 286 287 286 285 284 282 280 273 276 287 292 293 293 295 295 293 291 289 291 293 294 296 295 297 299 299 300 301 302 302 300 292 292 296 299 300 300 299 299 298 294 293 294 294 295 294 293 294 294 293 292 290 291 290 292 290 289 289 286 289 289 291 292 293 293 292 292 291 292 292 292 292 291 290 289 289 290 289 289 289 289 287 288 288 287
287 286 287 283 287 279 281 281 280 287 285 284 286 287 291 288 289 288 284 288 293 294 294 294 296 297 299 300 301 302 295 292 296 301 300 297 298 300 301 301 300 297 296 297 296 296 297 294 293 292 291 290 291 291 291 291 289 289 288 287 287 288 289 291 292 292 291 292 291 292 292 292 292 291 290 289 289 289 289 288 288 288 288 288 288 288
286 284 284 283 282 286 281 279 280 279 276 282 288 288 295 296 295 294 290 287 294 295 297 296 296 297 298 299 300 297 291 295 294 297 303 304 298 297 297 298 298 299 299 299 299 299 298 295 293 293 292 292 291 291 290 289 289 289 289 288 287 288 289 290 291 292 291 292 292 292 292 292 292 291 289 289 289 289 288 288 288 288 288 289 288 288
286 286 284 283 282 282 281 278 278 277 280 287 289 290 291 294 294 291 288 284 293 295 297 297 297 298 298 298 298 293 293 291 293 298 302 297 298 297 299 299 300 300 302 302 301 301 302 302 297 294 291 291 291 291 290 290 289 289 289 289 288 288 289 290 291 291 291 292 292 292 291 291 291 291 289 289 289 289 288 288 288 288 288 289 289 288
283 284 283 281 280 281 280 279 278 282 281 284 284 285 289 293 294 290 280 280 295 295 296 298 298 298 299 299 294 293 294 291 293 299 294 295 296 298 299 300 301 300 300 300 299 298 300 300 294 290 291 291 292 292 290 289 289 289 290 290 288 288 289 290 291 292 291 291 291 291 291 291 290 290 290 289 289 288 288 288 288 287 288 288 289 288
280 281 282 278 280 281 281 279 281 280 284 283 284 286 289 293 292 282 277 287 292 293 295 298 298 300 299 295 294 294 297 299 301 302 293 290 292 294 296 297 300 301 301 301 300 296 298 297 296 296 295 295 294 290 289 289 289 290 290 290 288 289 290 292 291 289 290 291 291 291 291 290 290 290 289 289 289 288 288 288 288 287 287 287 287 287
280 282 282 282 279 278 280 279 280 281 285 287 283 287 290 292 283 281 291 290 291 288 288 292 295 295 293 294 295 297 300 300 299 298 298 298 297 296 295 295 295 295 295 294 293 293 295 295 293 293 293 292 291 290 289 289 290 290 290 289 289 291 292 290 289 289 289 290 290 290 290 289 289 289 289 288 288 288 287 287 287 287 287 287 287 286
280 279 278 279 281 281 280 278 279 275 285 288 289 288 291 285 285 292 289 288 288 287 289 289 293 293 292 292 293 295 295 294 295 296 296 296 295 296 296 296 296 295 294 295 296 294 292 292 293 293 294 294 289 288 288 289 289 290 289 289 291 292 291 289 288 289 289 289 289 289 289 288 288 288 288 288 288 288 287 286 286 286 286 286 286 286
284 277 274 278 283 277 279 277 278 284 288 289 293 286 289 293 289 287 289 287 287 288 290 290 289 291 291 292 292 292 291 290 291 293 293 293 294 294 294 294 294 294 293 293 292 293 290 292 292 293 293 292 288 287 287 288 289 289 289 290 292 290 287 287 287 288 288 288 288 288 288 288 288 288 288 288 287 287 287 286 286 286 286 286 287 286
284 282 282 278 283 282 281 284 287 285 287 289 293 291 292 294 287 286 288 290 289 289 284 289 290 291 290 290 289 289 289 289 291 292 291 293 293 293 293 294 295 295 295 295 295 294 291 292 294 294 293 293 288 286 287 288 289 289 289 291 291 288 288 287 287 288 288 288 288 288 288 288 288 288 288 287 287 287 287 286 286 286 286 286 286 287
284 284 281 282 281 283 285 287 287 285 286 286 288 290 290 289 288 288 288 288 286 288 287 288 289 290 290 289 289 288 289 290 290 290 290 291 291 291 291 291 292 292 292 291 291 291 291 291 290 290 291 292 289 287 286 287 288 289 290 291 288 288 287 287 287 287 287 287 288 287 287 287 287 287 287 287 287 287 287 286 286 286 286 286 286 286
282 283 284 282 282 281 279 284 286 287 285 285 289 289 287 287 288 287 289 289 289 289 289 288 289 289 290 289 288 289 289 290 288 289 289 290 290 290 290 290 291 291 291 291 292 291 290 289 289 289 289 290 291 287 286 286 287 289 288 285 286 286 287 287 287 287 287 287 287 287 287 287 287 287 287 287 287 287 287 287 287 286 286 286 286 286
281 282 283 281 280 282 282 281 281 282 284 284 285 286 288 290 289 288 289 290 290 288 286 288 287 288 288 289 290 288 288 288 288 288 289 289 290 290 290 290 291 291 290 288 290 289 289 289 289 289 289 290 291 288 286 285 286 286 282 283 286 286 287 287 287 287 287 287 287 287 287 288 286 286 286 286 287 286 286 286 287 287 286 286 286 286
281 285 277 280 281 283 283 284 284 285 286 286 285 285 287 287 289 289 290 289 288 288 288 287 287 290 289 291 291 289 287 287 288 288 288 288 289 289 290 291 290 290 289 289 288 287 288 289 288 289 289 290 289 285 285 284 283 281 282 285 286 287 287 287 287 287 287 287 287 287 287 287 287 287 286 286 286 286 287 286 286 287 286 286 288 288
282 280 282 282 279 280 281 282 281 279 281 282 280 282 284 286 286 287 287 287 287 287 288 288 290 289 289 289 289 289 288 288 288 287 288 288 288 289 289 290 289 288 288 288 287 286 285 285 286 287 288 288 283 282 283 282 280 281 283 285 286 287 287 287 287 287 287 287 287 287 287 287 287 286 286 286 285 283 282 283 286 286 287 285 284 286
282 281 282 281 279 280 284 283 282 284 284 286 288 285 284 284 283 284 285 287 288 288 287 287 288 290 291 291 289 289 289 289 289 287 287 288 288 289 289 288 288 287 287 287 285 285 284 284 283 283 284 284 279 279 280 281 280 282 284 285 286 287 287 287 287 287 287 287 287 287 287 287 286 286 286 285 284 284 282 282 282 284 284 284 284 285
Wind_Speed
0 7 10 13 14 13 9 9 8 2 1 8 7 7 8 6 4 3 3 2 0 0 7 9 8 11 19 11 7 6 2 4 9 14 15 12 9 9 10 13 14 13 15 11 9 8 6 8 9 9 8 8 8 8 9 11 12 13 13 11 12 10 9 9 9 8 9 9 7 7 9 10 8 9 9 9 8 8 8 9 9 8 7 7 7 8
1 8 11 10 6 7 9 6 2 1 3 6 4 5 6 6 8 4 4 1 0 3 3 3 6 12 18 14 10 6 3 8 12 15 15 15 11 10 13 16 16 14 7 7 9 8 5 7 8 8 8 8 10 11 12 13 14 13 12 13 12 9 10 11 11 10 10 10 10 10 10 9 9 8 9 10 8 9 9 9 8 8 7 8 8 8
4 7 8 5 2 3 4 5 3 5 0 1 3 4 3 6 2 5 3 1 0 2 7 4 7 10 14 16 8 6 7 9 13 15 15 13 13 11 13 14 13 10 13 10 11 9 6 7 7 8 9 10 13 14 14 14 12 12 13 13 11 11 12 12 12 11 11 9 9 9 7 10 8 8 9 9 9 9 10 9 8 8 8 8 8 9
6 7 10 3 5 5 3 5 5 3 1 3 2 3 7 2 5 5 4 2 2 5 1 1 5 9 10 14 14 11 9 11 15 14 13 10 13 16 16 13 13 13 12 12 13 12 8 7 7 7 8 11 11 11 9 10 13 12 12 12 13 13 13 12 13 13 11 11 10 9 8 7 8 6 6 6 4 5 7 8 8 9 8 9 10 9
15 4 2 8 5 9 7 7 9 7 8 3 4 5 4 4 6 7 3 1 1 2 1 4 9 12 9 13 15 8 13 12 14 11 10 11 13 16 12 11 13 14 12 12 13 11 6 7 9 11 12 10 11 12 12 12 13 11 15 15 15 13 13 12 12 13 10 8 6 6 3 1 3 2 2 4 7 7 7 7 8 9 9 9 9 8
14 12 1 1 3 7 7 7 8 9 8 7 6 8 5 5 6 4 1 1 2 4 1 2 5 10 4 12 15 6 1 4 6 7 12 14 12 11 13 17 14 11 11 13 15 14 8 10 10 8 9 10 12 13 14 13 15 15 14 14 13 12 12 13 13 13 11 10 10 9 9 9 8 9 8 10 11 9 10 11 7 6 8 8 9 9
10 8 7 2 5 8 11 8 6 7 9 8 6 8 4 4 5 4 2 1 3 6 2 1 6 12 1 5 5 7 5 9 8 6 11 12 12 11 13 14 11 12 13 11 12 12 9 11 9 10 11 13 14 15 12 12 14 15 13 12 13 13 12 12 12 13 12 12 11 14 14 13 13 13 11 9 8 9 9 7 8 8 7 9 10 9
5 12 13 10 3 7 8 9 9 14 9 7 2 10 6 5 4 3 2 1 3 1 3 1 2 6 13 12 4 7 12 12 11 12 10 12 12 11 12 12 11 13 12 11 11 13 13 13 12 14 14 12 15 14 11 13 13 13 15 14 15 13 13 12 12 13 14 14 13 13 13 12 13 13 13 10 10 8 7 8 10 8 8 9 10 10
12 8 14 15 13 6 7 11 5 11 7 2 5 9 6 6 4 3 3 2 0 4 8 2 1 3 9 5 4 9 13 13 11 13 15 15 16 12 12 14 14 14 12 10 12 13 13 14 13 13 12 13 13 11 12 14 14 14 14 14 13 13 13 11 13 14 14 14 14 14 12 12 12 12 10 7 7 9 7 9 7 8 8 8 9 10
4 17 20 19 14 13 12 5 9 13 9 2 1 4 4 4 3 5 2 4 0 2 10 9 6 7 17 8 4 1 6 12 8 12 15 13 15 15 12 11 12 10 9 10 13 12 10 10 9 10 10 8 12 11 12 12 11 12 12 13 14 15 13 13 14 14 15 15 12 13 13 16 13 10 8 6 7 7 6 10 9 8 8 8 8 9
1 3 7 9 13 17 14 6 8 11 2 3 4 6 3 4 3 2 2 3 1 7 14 12 10 9 12 5 8 7 9 7 9 8 8 12 14 13 11 12 12 8 7 8 9 10 11 9 9 7 10 13 10 8 9 11 11 10 11 12 14 16 13 13 15 15 16 15 14 14 15 16 15 12 10 9 9 7 7 10 9 9 8 8 9 8
2 3 6 4 6 3 9 4 2 6 6 7 1 3 3 1 2 1 1 2 7 10 15 10 11 11 11 5 2 4 2 3 7 9 11 13 13 11 10 11 10 7 7 7 7 9 9 8 8 5 9 11 11 8 10 11 11 11 11 11 14 14 13 12 13 14 15 14 15 15 15 16 15 13 11 13 13 11 11 11 10 7 7 9 8 8
4 6 1 3 0 12 3 10 1 4 3 5 6 6 7 3 5 7 6 7 8 12 6 2 8 2 16 22 4 5 6 7 7 8 10 10 12 13 10 9 7 5 6 7 8 8 7 8 10 8 11 8 9 11 12 12 11 11 11 13 14 16 14 13 12 14 15 14 15 15 15 15 13 13 14 13 12 11 11 10 9 8 10 8 8 10
3 2 2 2 1 4 10 12 7 5 11 11 11 10 9 7 6 7 5 2 3 4 15 3 3 6 7 14 18 22 17 15 14 14 12 13 16 12 10 7 8 9 7 8 8 8 8 9 9 8 8 9 9 10 11 11 11 10 10 12 14 17 14 13 13 15 15 16 16 15 15 14 12 13 13 13 12 12 11 10 11 11 11 10 12 10
7 10 8 9 7 9 13 14 15 5 12 12 5 9 8 8 3 6 5 7 10 13 1 1 6 5 3 7 1 4 6 9 9 5 7 10 9 13 11 9 10 11 11 10 9 10 11 11 9 9 9 8 9 10 10 9 10 10 10 12 14 14 12 13 14 13 15 15 16 14 14 14 11 12 12 12 12 11 11 10 10 11 10 11 10 10
13 7 3 19 3 15 15 12 6 7 5 7 5 4 4 9 2 5 1 2 4 6 5 2 5 5 10 3 6 6 5 7 6 8 8 14 14 12 12 13 14 12 12 10 10 11 11 11 10 10 8 9 9 10 8 9 10 10 12 12 14 16 14 13 14 15 16 16 14 14 14 15 13 11 11 10 10 10 10 11 11 11 10 10 9 7
4 10 4 10 6 18 18 12 4 11 9 7 9 10 15 5 5 4 2 0 1 2 8 3 3 7 9 18 18 17 9 10 8 10 9 13 15 13 11 14 12 11 9 10 10 11 11 8 9 10 10 9 8 7 10 12 12 13 13 12 13 13 11 13 15 15 13 13 12 13 13 12 12 13 14 14 14 13 11 10 11 10 10 9 9 8
8 5 4 6 6 10 13 10 5 10 4 6 9 10 4 5 4 5 5 1 2 6 5 3 11 12 1 15 3 4 16 17 11 15 15 14 12 10 12 12 12 10 12 8 8 9 9 8 9 9 8 9 9 10 10 12 9 9 10 11 13 12 13 13 13 13 13 13 13 13 13 14 14 14 15 14 13 11 9 10 10 9 9 11 9 7
3 6 2 7 14 6 6 7 5 5 2 3 4 4 8 2 7 3 2 9 1 5 4 5 10 12 8 16 6 2 5 9 11 16 14 14 13 14 13 13 10 10 10 10 10 9 9 10 10 9 10 10 8 8 8 7 5 6 7 9 11 13 14 13 12 12 12 12 11 11 13 13 13 12 12 12 11 9 10 12 11 11 12 8 7 7
0 3 2 3 7 4 7 10 12 11 8 3 1 6 1 3 4 8 10 1 2 7 1 10 5 9 9 12 20 16 6 8 10 11 15 18 17 16 15 13 10 10 9 9 9 9 9 9 9 10 10 10 9 8 7 6 5 8 9 8 9 9 7 7 9 10 10 11 11 11 10 10 12 12 12 12 11 11 12 13 11 11 10 10 5 7
2 1 6 1 1 5 5 7 14 15 13 8 5 4 2 3 1 2 1 6 5 8 8 4 13 6 12 4 5 10 11 11 12 15 14 14 16 16 13 9 7 7 8 9 8 9 9 8 8 8 7 7 5 5 5 6 8 8 5 8 9 10 9 9 11 10 11 10 11 11 12 12 12 13 12 11 10 11 12 11 10 10 9 5 8 7
3 3 8 2 4 9 6 10 17 14 15 15 14 13 15 12 5 7 7 2 1 2 5 6 17 11 8 5 9 13 11 13 15 15 15 15 15 15 11 8 7 8 9 10 11 8 9 8 8 6 6 4 4 6 6 6 5 6 8 9 8 7 8 10 10 10 10 9 9 11 12 11 9 10 9 10 10 11 11 10 10 9 7 9 9 7
7 2 5 6 2 7 8 1 4 9 2 10 12 13 12 8 9 9 13 6 3 9 4 4 4 18 13 7 8 11 9 11 14 12 15 14 13 13 13 5 7 7 9 10 8 7 7 8 7 5 6 6 6 6 5 5 6 8 7 6 6 8 10 8 8 7 7 8 9 11 11 9 8 8 8 10 10 10 11 10 8 7 9 9 8 7
6 3 1 6 5 3 8 5 9 6 4 2 10 3 4 12 13 14 13 4 5 2 5 4 8 14 18 7 10 8 7 11 11 10 14 13 11 12 12 7 9 8 9 9 7 8 9 7 5 5 5 5 5 5 5 6 5 5 6 6 5 9 8 6 6 6 7 8 9 9 7 8 8 7 8 9 9 10 10 9 7 7 8 9 7 9
7 3 9 8 5 4 5 2 7 2 2 4 6 12 13 11 13 7 1 2 6 10 11 10 15 10 18 5 4 7 8 9 9 8 7 10 10 11 12 12 7 7 8 10 9 8 7 6 7 6 5 5 5 4 5 5 6 6 7 5 8 8 6 6 5 6 7 7 8 7 7 8 7 8 9 11 9 10 9 8 8 8 10 9 9 9
9 6 12 13 15 12 11 12 14 13 15 7 8 14 15 17 16 9 12 7 13 10 13 9 11 16 20 2 3 5 7 6 6 6 6 5 7 10 12 13 11 7 7 7 9 7 8 7 5 5 6 5 5 6 5 5 5 5 5 7 5 6 5 6 4 6 6 6 7 7 8 8 8 10 10 10 8 9 8 8 7 8 7 8 9 8
2 4 10 13 15 17 16 11 6 3 3 7 1 9 14 14 17 17 10 12 16 9 13 13 15 17 24 24 24 12 4 6 9 7 10 11 10 12 12 13 11 8 6 7 6 6 5 6 9 8 5 6 5 5 5 5 6 5 6 6 5 4 4 4 4 4 5 6 7 7 9 9 9 8 8 8 7 5 5 6 5 6 7 6 7 7
1 5 10 11 18 17 15 16 3 8 9 9 14 17 16 16 16 18 15 16 9 11 17 9 15 15 26 30 25 15 5 8 7 8 10 9 9 12 13 8 7 8 8 5 5 5 7 9 8 8 8 6 7 6 6 6 6 6 6 7 5 4 4 2 3 4 5 5 7 8 8 7 5 5 5 4 4 4 4 4 4 5 4 4 6 6
5 11 11 11 17 18 20 19 5 2 5 9 14 14 17 17 17 20 22 22 17 15 17 15 15 16 24 29 24 18 8 10 11 12 14 13 7 6 6 9 10 9 8 6 8 6 8 11 11 11 9 8 5 7 8 7 7 5 6 5 5 4 6 4 5 5 5 5 7 7 4 4 4 3 3 3 3 4 4 5 5 5 5 5 6 6
4 11 10 12 16 18 20 19 6 6 4 4 9 14 18 17 19 20 20 20 23 19 15 17 14 18 20 26 27 18 3 6 7 9 7 4 7 6 7 9 11 10 9 10 10 10 9 12 11 8 4 4 6 7 7 7 7 7 8 7 6 6 6 6 7 7 7 8 8 5 4 4 4 5 4 5 6 6 5 5 5 6 5 6 6 5
8 9 13 10 11 17 18 17 13 15 13 14 10 7 10 13 16 21 21 21 20 22 20 18 20 22 19 20 23 3 4 6 6 7 9 7 6 7 8 9 11 14 14 11 9 9 9 10 9 7 6 8 8 10 10 9 7 6 6 7 7 8 7 7 8 7 7 8 5 5 5 5 5 5 6 6 5 5 6 5 5 5 4 4 4 5
9 6 6 4 11 14 14 16 17 16 17 19 18 14 7 7 11 11 14 16 18 22 22 23 22 21 20 22 19 5 5 9 13 11 7 7 7 7 9 12 14 16 18 12 9 9 9 11 10 10 10 10 9 8 8 9 8 6 10 9 9 8 6 8 8 8 7 6 5 6 6 6 6 6 5 5 6 5 5 4 4 4 4 4 4 4
8 5 9 7 12 14 18 16 17 13 11 15 18 17 17 18 17 14 17 17 20 17 18 18 20 21 24 13 8 16 18 15 9 6 7 8 8 9 12 15 17 17 15 8 9 11 12 13 12 11 9 7 10 10 12 10 6 9 12 10 8 7 8 8 8 7 6 5 6 6 6 6 6 6 6 6 5 5 5 4 4 4 4 4 4 4
9 12 12 9 11 10 14 13 4 8 17 16 6 19 24 24 23 22 17 15 14 14 13 13 17 16 16 18 20 26 28 19 9 8 10 11 11 12 13 13 13 12 11 9 10 11 10 7 7 9 12 13 11 10 7 5 9 7 1 3 6 10 8 9 8 7 6 6 6 6 6 7 7 7 6 6 6 5 5 5 5 4 4 4 4 4
14 13 13 7 8 13 14 6 7 18 13 2 12 17 21 26 23 23 20 17 14 15 16 18 18 20 25 23 22 24 23 14 8 8 9 11 12 12 15 15 14 13 13 11 11 11 10 10 10 11 10 10 10 7 5 6 7 5 3 5 7 7 9 9 8 7 7 7 7 6 7 7 7 7 7 7 7 6 6 5 4 4 4 5 6 6
9 14 10 12 9 6 9 9 12 10 4 12 14 11 13 15 19 19 23 24 22 20 19 21 23 24 23 21 22 23 23 14 4 5 12 14 14 15 15 15 11 8 9 12 13 16 12 13 15 15 12 7 5 8 8 10 6 6 7 3 4 6 7 8 8 8 7 8 8 8 8 8 8 7 7 7 6 7 6 6 7 7 5 4 4 3
6 4 9 12 9 13 11 13 15 6 12 3 4 2 8 11 14 19 19 22 23 21 18 16 16 19 22 24 24 24 7 4 11 17 15 16 15 11 11 11 8 9 12 15 14 16 14 9 8 9 7 7 8 8 10 8 5 6 5 5 6 5 6 7 9 10 10 10 9 9 9 9 9 9 8 8 8 7 7 7 7 5 5 5 5 5
6 9 1 7 8 13 14 14 10 10 14 13 11 6 11 17 19 19 16 18 11 17 19 20 22 23 25 25 25 14 2 5 13 18 22 19 8 9 10 10 10 10 12 15 15 14 15 9 8 9 9 11 11 11 7 5 7 7 7 8 6 7 8 9 11 10 10 11 11 10 10 9 9 10 9 8 9 8 7 7 6 6 6 6 6 5
3 3 1 6 2 6 13 14 12 12 11 8 14 11 7 6 9 5 9 17 10 12 17 19 20 21 22 23 22 1 2 9 15 18 19 1 11 14 15 16 17 18 18 18 16 15 16 15 12 10 7 9 12 12 9 9 9 8 10 9 8 8 8 10 11 10 12 13 11 10 10 10 9 9 9 9 9 9 9 9 8 6 6 6 6 5
6 5 5 6 5 5 3 9 13 7 5 3 5 4 4 6 11 9 12 8 13 10 8 13 19 21 21 20 5 4 9 12 15 16 2 5 7 12 14 15 16 15 16 15 12 12 15 14 4 4 9 12 16 13 9 8 8 10 12 11 8 8 11 12 14 14 8 7 9 10 10 10 10 10 10 10 8 7 7 5 5 6 6 5 5 5
5 4 7 9 9 10 9 3 3 5 4 4 3 1 1 5 9 9 13 4 1 1 7 11 16 19 16 11 5 9 12 15 16 14 3 4 4 5 8 9 12 12 14 15 16 15 12 12 11 14 15 16 14 7 7 8 9 12 13 12 10 14 15 15 10 7 8 8 9 10 11 9 10 10 8 7 7 6 5 5 5 5 5 5 4 5
3 3 2 4 5 7 6 7 6 4 4 4 3 3 1 7 8 10 4 2 5 1 3 2 1 3 4 1 6 8 10 7 9 10 11 12 10 10 9 9 10 10 9 9 10 8 8 10 10 12 14 12 9 8 10 11 13 13 12 10 14 17 15 9 7 8 8 10 11 10 10 9 7 7 8 6 7 7 6 4 4 5 5 4 5 6
9 7 7 8 4 1 2 3 3 7 5 8 6 3 2 4 5 2 0 1 1 1 2 2 1 3 2 4 5 6 7 8 9 11 9 10 10 11 12 11 12 11 11 10 12 11 7 9 11 14 16 13 7 8 8 10 13 13 11 14 19 16 11 9 8 9 10 10 10 10 10 9 9 9 7 8 7 8 7 5 5 5 5 7 6 7
4 4 3 3 4 5 7 8 8 8 2 5 10 7 6 11 3 3 2 1 2 0 2 1 4 3 4 5 6 5 5 6 8 10 9 10 10 10 10 11 11 10 10 11 11 12 7 10 12 14 14 12 7 8 9 11 14 12 13 18 18 8 7 7 8 8 9 9 9 9 9 9 9 8 7 8 8 7 8 7 6 6 6 6 7 7
6 6 5 5 6 6 7 8 7 3 2 3 5 4 3 1 1 5 2 1 1 6 3 1 7 8 4 4 5 5 5 6 8 8 7 12 12 11 12 13 13 13 12 12 14 11 8 12 17 16 15 13 7 8 10 11 14 15 16 18 9 10 11 10 10 10 10 10 10 10 8 8 8 8 8 8 9 9 8 8 8 7 5 7 6 7
1 2 1 1 4 4 6 7 1 1 1 2 4 6 4 2 3 3 2 2 4 4 5 4 6 8 9 2 2 3 5 6 8 10 9 10 10 11 10 11 13 13 12 11 12 11 10 11 11 12 14 16 11 10 10 12 13 16 18 12 7 9 9 11 12 12 12 10 9 9 9 10 8 8 8 8 7 8 7 8 8 7 7 6 6 6
3 1 2 3 2 2 6 3 7 8 1 4 6 5 2 3 5 3 5 5 6 6 5 4 5 7 8 7 4 6 9 8 7 10 9 10 11 11 11 12 13 13 12 11 13 10 9 8 11 13 14 16 15 10 10 11 11 14 7 3 6 7 9 10 11 10 9 10 9 9 10 11 9 9 8 8 7 6 7 7 7 7 7 7 7 6
4 2 1 4 3 6 9 3 2 2 2 4 4 4 6 8 7 6 7 7 7 5 4 6 4 6 5 7 8 5 8 7 7 10 9 10 11 10 11 12 14 13 11 7 10 9 9 10 11 14 14 15 17 9 9 9 11 9 5 4 7 9 10 11 11 12 12 12 10 10 10 10 11 10 8 8 8 8 7 7 7 8 9 9 8 8
2 2 3 3 3 8 8 10 6 5 8 8 7 8 7 6 7 10 10 9 6 6 7 5 4 7 5 10 9 6 6 8 8 9 9 11 10 10 11 12 13 12 12 12 10 7 10 10 12 14 14 16 11 5 8 9 8 5 6 6 7 9 11 10 10 8 9 9 9 9 9 8 9 9 9 8 7 5 5 7 6 6 4 3 5 8
1 6 3 1 4 7 10 6 5 2 7 4 2 7 7 8 7 9 9 8 7 6 6 6 9 6 6 8 8 7 8 9 7 7 9 10 10 11 12 13 11 12 13 10 10 10 11 11 11 13 13 13 6 5 6 6 5 5 5 6 7 9 11 10 9 9 9 9 8 8 9 8 8 8 8 9 8 8 6 6 5 3 6 5 3 3
7 5 4 6 6 11 10 3 4 3 6 10 8 5 5 5 3 5 6 8 9 8 5 5 7 11 13 11 4 6 8 9 10 7 9 10 10 10 10 11 12 13 12 9 10 11 10 11 9 9 10 9 3 4 4 3 4 5 6 6 8 9 9 10 9 8 8 9 9 10 9 9 9 8 8 8 9 8 8 6 6 9 8 4 4 7
Wind_Direction
205 187 192 196 204 200 197 202 202 102 122 143 157 179 207 205 255 284 280 257 247 248 237 227 238 244 264 255 258 256 262 263 265 263 262 258 253 253 262 261 257 254 253 257 254 258 222 216 215 213 205 209 206 207 204 204 206 206 203 195 204 196 190 188 190 193 192 197 199 205 206 210 203 206 208 214 214 210 212 212 210 203 201 198 195 199
22 222 217 214 213 189 198 191 197 338 106 146 161 176 213 196 227 219 229 20 332 171 299 256 242 249 263 269 258 252 194 239 245 254 256 260 254 252 252 259 258 257 272 272 271 254 224 217 212 204 203 199 201 212 206 205 208 206 205 205 205 191 193 196 195 194 198 199 197 194 204 204 206 204 206 218 213 212 213 211 206 201 199 199 198 200
290 260 237 214 166 177 178 165 171 214 150 225 153 187 219 241 277 292 252 264 256 138 258 258 249 256 258 269 260 242 214 232 240 241 248 254 260 254 250 253 262 264 258 258 255 256 226 221 217 203 206 206 210 213 207 208 204 205 207 210 202 197 195 200 198 195 202 198 201 198 200 198 212 216 215 217 213 207 210 209 202 199 198 197 205 203
241 267 270 181 160 125 92 149 166 184 257 194 170 146 228 147 142 275 282 227 231 176 232 39 302 273 273 276 264 242 222 233 238 244 248 239 252 253 249 247 251 250 252 256 255 253 232 215 217 207 207 210 211 218 211 206 208 209 211 209 203 202 200 201 201 201 201 198 197 203 204 206 206 205 216 225 224 209 214 217 201 204 196 199 208 204
202 197 270 174 168 147 160 162 179 197 223 214 211 214 204 148 207 195 252 349 318 307 60 334 301 282 242 266 274 226 223 231 247 251 255 252 241 252 262 262 246 251 247 251 260 254 236 218 219 209 209 207 211 213 211 204 207 208 209 207 203 202 202 202 199 199 195 185 187 190 188 148 222 278 176 194 228 215 214 219 212 211 200 204 207 206
220 209 38 294 123 148 152 178 191 181 223 223 223 206 205 182 206 229 312 58 11 323 350 158 314 270 215 225 249 276 339 262 251 241 248 250 248 253 254 252 254 251 245 245 251 252 235 226 230 218 213 210 215 216 213 207 210 209 211 206 203 203 204 204 199 193 185 190 188 179 192 204 207 220 207 214 214 206 211 217 214 208 202 205 209 208
219 194 178 155 178 174 182 189 194 169 209 212 229 179 172 191 206 193 185 133 302 257 303 34 211 281 54 262 248 265 256 255 270 243 257 258 253 243 244 252 250 245 250 240 247 254 247 237 227 226 213 212 214 220 211 209 215 213 211 205 203 203 205 202 198 186 187 193 196 198 202 206 207 215 223 217 212 210 212 206 208 208 199 205 208 212
150 173 194 193 195 200 187 207 192 177 185 228 127 142 170 180 176 180 130 198 269 315 292 28 148 261 287 254 216 254 261 254 265 266 250 254 254 242 246 249 245 244 241 241 240 240 238 240 228 231 222 215 218 217 203 213 216 212 210 203 204 206 205 200 193 188 191 195 197 201 209 211 215 215 223 204 212 209 198 200 207 203 206 204 207 212
147 169 190 194 201 212 223 216 161 166 163 223 162 154 191 167 181 139 138 177 151 26 289 206 285 301 252 276 225 208 250 256 244 251 260 258 260 256 243 243 243 242 241 234 238 238 233 233 231 230 231 223 222 215 208 211 211 211 211 208 206 207 205 201 192 192 195 199 197 201 205 214 221 220 225 204 203 205 195 208 202 205 208 207 209 212
178 185 189 190 188 215 220 204 140 170 191 268 81 61 99 96 84 142 124 119 268 189 248 231 174 235 277 250 210 318 249 258 245 240 249 255 258 259 260 257 251 242 236 236 238 245 245 240 239 233 239 240 224 220 217 219 215 213 208 207 205 208 203 199 196 194 196 199 198 202 208 213 218 214 218 197 208 203 190 213 207 207 207 208 210 212
194 11 159 177 193 208 204 150 166 178 149 137 103 88 26 50 85 40 102 122 86 240 250 228 185 195 277 252 193 151 228 204 241 260 261 262 262 261 257 259 261 252 237 238 239 243 246 241 239 235 231 236 234 222 214 220 218 216 211 210 210 211 204 197 198 193 197 197 198 207 208 212 216 208 206 208 218 200 197 214 213 207 210 204 212 206
46 119 147 235 206 44 107 75 16 126 149 130 103 124 100 264 32 69 359 95 211 252 253 221 193 185 227 291 259 225 320 235 207 230 242 251 260 264 258 256 256 256 252 251 244 249 246 259 252 238 240 237 234 224 219 219 214 211 210 208 214 218 209 201 199 196 200 196 202 209 210 212 214 205 205 211 216 205 210 211 212 207 205 215 212 211
240 189 180 16 8 151 134 107 11 115 123 129 114 113 186 223 173 227 139 212 200 222 242 51 157 200 225 249 225 254 251 253 239 235 239 252 263 258 258 264 272 265 263 254 251 252 252 243 245 231 236 238 232 225 221 220 214 211 209 206 209 216 208 202 194 197 200 199 204 207 210 214 212 207 210 214 216 209 211 208 210 200 212 209 212 214
226 209 186 199 176 201 153 173 156 177 188 180 184 178 183 204 209 229 196 204 231 301 255 199 138 226 284 272 252 252 246 243 238 229 232 241 255 274 275 274 274 269 248 248 246 244 242 238 241 234 233 230 231 228 224 221 216 212 210 208 210 218 205 201 196 198 199 204 208 207 209 213 208 210 211 215 216 213 211 207 209 209 212 211 215 209
191 214 224 163 220 166 190 201 185 178 166 196 187 170 203 194 178 230 188 199 202 218 292 144 130 223 179 231 258 249 267 272 273 289 263 269 269 264 268 271 267 265 264 250 245 242 240 240 238 240 231 227 226 226 224 221 218 212 212 208 211 218 209 200 201 199 202 207 208 207 209 211 207 210 210 216 217 213 211 211 210 213 212 215 217 212
213 237 199 191 153 165 193 203 146 106 143 194 161 136 189 227 170 228 236 248 231 248 273 208 194 205 225 327 291 242 264 287 280 277 278 272 266 260 265 263 259 256 257 255 255 256 247 240 241 242 240 231 224 224 224 223 217 211 215 210 211 213 206 198 200 204 205 208 208 208 207 210 207 209 213 220 219 219 212 212 211 217 212 216 214 206
156 226 163 191 159 180 200 181 184 157 198 171 149 198 212 178 127 35 329 326 27 41 255 165 312 286 301 281 262 258 259 260 273 264 249 261 262 256 253 259 258 256 258 255 244 249 253 248 244 237 234 233 229 222 219 220 212 211 211 209 214 216 208 202 204 207 206 209 209 210 211 210 207 209 211 216 216 214 212 213 216 217 217 215 210 205
181 227 191 148 208 224 201 173 186 200 99 101 199 207 68 58 102 171 227 22 232 220 252 196 238 254 147 275 335 243 220 228 226 247 243 239 254 267 255 254 254 253 254 258 260 257 255 249 245 241 242 239 227 219 224 225 219 216 214 211 212 212 210 208 204 205 205 206 208 209 210 211 208 210 215 217 219 212 208 216 219 218 219 217 210 198
110 253 294 208 195 178 76 86 314 287 344 193 209 110 147 108 224 169 194 228 227 219 248 259 239 254 222 252 259 273 230 232 230 244 262 266 263 260 259 255 256 259 269 267 260 261 259 248 242 234 233 236 239 238 232 236 217 219 220 217 213 215 211 206 204 206 210 207 208 209 210 209 211 214 217 219 218 208 211 217 217 218 223 219 201 193
28 201 303 233 192 133 149 155 205 213 205 224 337 188 170 146 228 162 202 250 145 255 14 259 183 247 219 228 245 245 223 217 226 245 249 251 251 251 255 250 242 246 250 255 258 256 255 254 244 233 232 237 233 233 235 230 220 218 218 209 218 224 214 204 207 206 211 210 208 212 210 212 212 213 215 215 209 210 214 219 216 219 222 218 190 199
270 145 236 328 101 148 209 197 204 197 191 203 216 186 166 207 310 83 286 188 186 228 234 300 279 246 248 211 230 237 217 203 211 227 237 245 253 251 255 265 264 253 261 263 256 261 261 259 258 254 250 252 261 253 244 222 217 222 210 216 215 211 209 205 208 203 211 204 210 212 211 211 209 213 214 215 209 211 216 220 216 217 219 196 209 197
195 180 208 149 176 208 211 208 212 210 197 190 190 200 189 176 167 203 241 108 77 197 225 205 252 268 262 203 187 221 219 201 222 222 236 246 251 263 260 246 246 257 254 251 254 247 260 264 260 265 272 264 256 250 233 231 233 228 216 217 213 213 214 208 209 205 209 204 207 212 216 215 211 213 211 213 213 213 217 219 215 213 204 208 214 192
177 142 214 218 212 206 226 13 34 32 0 221 201 219 204 204 187 196 226 205 174 218 170 171 303 268 255 178 208 219 212 213 223 220 236 244 251 258 267 246 261 245 251 258 259 267 259 258 263 266 266 259 238 241 234 230 219 221 222 219 218 211 220 208 210 203 203 202 205 215 217 213 212 204 205 209 213 215 216 218 213 198 205 210 212 194
71 211 93 263 281 264 271 301 311 24 30 294 238 252 157 207 192 209 219 200 190 169 201 240 246 264 269 168 220 207 221 222 224 216 229 242 250 260 273 260 239 254 254 258 269 271 263 270 283 285 268 260 251 239 231 224 224 227 224 221 216 221 223 209 210 200 202 208 215 216 210 211 208 196 203 208 211 214 214 212 206 195 204 208 204 203
199 173 206 224 232 253 279 291 262 261 124 240 234 211 214 211 209 224 1 107 223 199 196 194 238 248 265 127 200 194 226 242 242 246 240 247 261 264 268 273 252 247 276 277 269 268 277 272 264 255 249 243 243 245 238 227 223 216 221 212 214 224 218 215 203 199 210 208 215 213 210 215 202 203 208 211 208 213 208 205 202 196 203 204 208 210
204 155 188 212 219 220 213 207 214 222 219 210 218 220 214 206 203 194 226 204 234 209 197 209 239 247 262 276 283 229 243 265 269 269 284 243 255 270 273 269 279 264 253 279 293 301 278 265 270 263 246 238 235 230 230 232 230 227 227 227 217 215 213 219 203 210 203 205 209 213 212 214 206 212 214 213 214 212 208 204 204 203 207 203 209 204
195 192 206 208 215 224 230 236 230 225 55 209 35 224 228 219 215 215 220 218 221 220 223 213 224 250 264 263 259 236 215 237 255 258 250 255 249 251 258 263 265 276 270 261 270 276 293 280 255 248 247 232 239 237 239 236 238 233 231 237 227 224 216 205 193 207 205 203 209 210 214 211 212 212 214 214 216 210 205 206 204 200 206 197 205 204
102 213 221 221 232 239 241 242 226 182 201 198 202 216 216 215 210 217 220 229 209 228 243 216 225 233 254 259 257 256 183 240 242 251 259 261 258 246 252 276 295 278 273 275 267 266 257 256 265 259 245 233 235 236 243 234 232 231 224 231 230 217 214 184 164 185 204 201 215 221 218 215 212 213 219 218 209 200 198 190 190 199 195 181 199 206
179 226 222 220 238 239 243 247 223 250 219 206 210 215 219 212 210 216 222 228 220 223 234 225 215 223 248 259 258 260 201 211 217 230 233 234 257 294 303 285 276 270 273 270 256 238 236 241 240 240 234 230 224 235 238 238 238 237 244 238 228 206 212 181 181 191 195 198 213 220 211 204 206 198 195 188 187 190 192 192 194 193 193 193 201 203
168 235 231 221 240 241 242 244 221 226 223 230 226 216 215 208 216 221 228 228 231 237 238 248 246 237 244 260 262 264 211 201 219 232 254 282 264 269 285 278 273 275 265 254 246 235 232 239 243 245 261 256 238 245 243 236 232 223 224 227 212 209 209 167 197 199 202 210 214 198 189 187 183 184 184 187 193 195 188 184 182 180 185 197 202 205
193 224 211 229 245 249 248 248 238 236 239 243 234 228 232 233 224 217 219 226 234 244 244 250 251 252 247 252 266 74 174 213 250 259 240 238 260 259 259 272 273 266 259 250 245 241 238 243 247 252 245 239 230 230 229 229 225 216 224 219 202 206 194 169 194 207 204 215 199 185 177 181 186 176 186 184 169 164 159 158 156 156 163 168 175 188
177 245 242 222 235 246 245 242 239 237 236 239 240 238 245 232 237 230 230 220 219 225 226 234 243 250 254 249 271 289 228 213 232 231 240 250 239 249 252 253 257 260 260 252 245 244 245 244 248 239 235 236 238 234 227 229 219 199 227 210 201 190 170 174 193 200 207 204 184 185 183 188 180 180 180 162 163 155 149 142 143 147 153 148 153 157
186 194 225 208 240 235 243 233 238 242 254 250 234 229 228 234 231 226 228 218 220 218 226 223 233 236 247 268 327 287 265 251 248 240 236 251 245 233 238 242 246 253 264 261 249 242 237 234 234 236 239 240 239 232 229 215 183 213 219 207 191 149 172 169 189 195 197 186 183 186 183 180 180 179 172 172 154 148 138 138 139 145 149 172 177 147
200 209 223 195 230 245 242 244 219 224 227 235 202 216 214 226 228 234 232 226 231 216 234 232 243 255 263 263 254 258 261 261 245 232 210 219 234 238 241 245 249 258 266 256 247 246 250 257 258 240 231 229 232 230 240 190 208 223 243 202 164 166 170 164 189 189 187 178 184 181 177 177 177 176 174 162 154 148 147 149 167 172 166 147 153 166
204 204 224 205 229 234 243 225 213 232 235 107 209 218 211 220 228 234 241 235 222 220 227 236 239 245 249 249 254 258 266 270 229 228 232 230 228 234 242 244 241 241 249 259 263 252 240 239 240 246 246 242 238 237 219 218 213 214 159 179 184 181 164 177 184 190 185 182 182 176 175 175 175 172 168 165 161 159 163 165 162 169 177 171 174 175
205 208 208 221 217 253 247 217 237 230 213 218 232 227 203 210 220 229 243 239 229 220 213 224 229 237 246 252 253 256 257 271 330 247 242 239 224 229 237 246 248 239 249 249 250 258 242 230 231 232 238 241 231 238 216 223 195 182 209 187 209 181 176 170 179 192 183 187 187 185 180 174 172 169 167 166 165 167 174 180 182 184 183 171 173 171
178 223 212 228 199 229 226 233 241 308 300 316 325 237 161 194 196 205 229 236 228 228 223 232 240 248 250 251 250 252 275 10 280 270 242 232 236 239 244 257 253 230 232 244 244 251 251 234 238 242 237 238 228 231 226 221 176 190 177 185 203 186 179 174 189 195 192 193 188 187 182 180 174 173 174 171 173 180 181 181 186 184 170 164 174 166
171 194 242 211 211 206 232 240 246 240 246 245 224 237 213 200 201 209 218 247 223 216 214 216 223 231 238 245 250 253 75 300 275 271 262 250 215 230 246 247 251 249 242 243 246 250 257 241 226 230 219 230 234 229 220 187 187 182 196 205 194 191 194 192 206 199 194 197 189 184 180 183 179 178 177 178 187 185 182 182 182 180 175 171 169 176
174 176 248 200 300 198 214 230 236 240 244 242 242 221 208 218 209 167 201 241 233 213 211 210 219 228 235 241 251 199 180 250 256 260 281 104 192 202 217 230 232 235 240 243 243 249 259 257 231 226 218 231 239 235 204 199 185 185 207 209 202 204 205 210 212 199 201 199 184 178 179 179 179 178 179 188 193 184 183 185 182 172 174 178 169 172
178 172 178 222 215 238 246 226 226 224 252 255 278 265 226 138 110 106 223 246 238 231 205 206 214 224 237 246 228 160 211 241 249 262 124 184 185 199 205 226 238 243 248 250 250 244 248 261 273 229 224 229 234 229 201 192 181 200 210 212 195 198 215 217 214 209 196 171 173 177 177 180 182 183 186 192 185 185 185 170 166 168 170 173 168 158
192 197 200 219 216 219 205 290 305 310 284 257 246 274 127 138 120 186 217 203 267 175 195 203 207 220 236 254 163 233 226 231 249 264 276 334 339 300 263 253 242 237 240 243 245 243 247 250 236 238 234 232 235 215 186 183 190 210 215 207 194 214 216 218 211 180 177 174 171 176 181 182 185 185 186 180 179 172 167 170 171 159 163 159 142 134
197 162 190 189 226 223 216 222 237 251 232 227 237 206 260 142 208 204 229 138 136 111 36 61 348 347 39 192 219 240 271 301 307 311 319 310 299 289 289 279 285 291 289 281 281 280 263 259 253 252 257 248 229 195 191 186 202 215 212 202 215 222 218 207 189 172 168 175 180 178 178 181 181 176 174 168 162 169 172 159 153 159 152 145 146 144
181 162 197 191 197 137 163 217 235 262 251 187 141 82 229 183 240 208 184 300 135 137 71 60 141 251 182 275 220 230 265 282 288 295 297 291 291 284 280 279 275 270 274 283 285 275 268 273 261 253 251 251 212 204 191 186 206 217 208 211 222 219 205 190 173 173 174 173 175 178 177 176 174 173 168 169 169 164 161 153 151 152 150 151 150 147
186 148 207 217 182 159 185 199 209 219 174 194 158 195 194 212 193 184 136 299 272 86 358 348 280 229 234 248 275 283 272 284 296 289 291 290 287 283 278 275 276 274 268 257 249 259 244 244 255 259 258 253 213 199 192 186 209 215 211 222 226 197 173 169 173 168 169 175 176 170 173 172 172 168 167 165 160 158 157 158 157 151 158 158 154 151
213 185 175 178 215 170 206 215 238 234 195 234 207 211 242 228 162 180 140 201 283 296 208 278 282 287 250 251 264 253 282 269 260 274 285 286 290 287 286 284 282 281 275 270 266 260 244 240 249 252 260 257 222 204 200 201 208 217 218 230 202 181 181 172 166 168 174 178 176 173 167 160 167 170 166 165 160 160 161 158 159 157 163 159 160 162
297 195 185 88 258 278 270 226 276 38 290 282 259 227 242 230 257 161 174 290 241 217 190 226 272 286 295 165 237 256 230 267 288 289 285 281 280 284 281 282 283 276 272 276 278 270 251 254 258 262 261 264 240 217 208 210 206 216 225 221 183 186 166 167 168 175 179 173 170 168 158 160 163 164 165 160 166 164 162 161 164 163 161 164 167 168
263 160 155 208 275 98 253 268 213 236 193 284 275 307 300 233 250 289 315 268 261 270 271 233 215 259 276 300 259 256 279 277 275 278 278 283 282 277 279 276 276 276 275 277 270 276 274 250 255 253 249 255 254 225 222 216 220 227 237 151 168 160 166 166 173 172 169 170 166 161 162 165 168 164 165 163 159 159 159 161 164 164 164 169 168 170
310 200 172 233 198 205 244 257 228 143 209 238 238 262 289 289 291 274 246 260 266 274 264 274 298 283 275 286 271 245 253 263 270 276 281 277 279 285 283 281 281 289 280 249 268 275 271 259 249 253 251 250 253 228 222 220 226 223 204 170 158 161 162 172 176 177 177 173 168 169 169 169 163 162 160 163 159 157 159 167 171 173 176 177 173 170
190 45 248 176 207 269 295 278 282 286 266 243 221 235 244 249 262 276 278 282 293 298 294 288 220 249 271 270 285 276 267 260 251 260 269 278 282 282 280 281 287 287 292 300 289 266 258 260 254 252 254 255 257 226 219 222 225 202 191 179 167 161 168 176 175 171 167 166 164 167 169 164 164 165 158 151 147 142 152 165 174 172 169 179 172 175
211 246 208 34 290 263 237 244 123 226 263 295 234 221 224 238 233 255 283 297 294 292 284 290 296 272 242 255 269 269 263 272 263 261 268 269 272 277 284 286 288 292 293 290 292 288 277 261 254 260 259 263 267 239 229 220 204 190 181 168 172 170 173 170 164 165 169 169 169 164 163 162 161 160 154 151 144 130 88 49 87 148 171 173 156 133
196 212 137 202 207 243 252 194 189 221 275 253 252 251 229 237 202 251 269 278 288 277 278 297 304 310 306 294 242 236 262 271 275 268 273 273 271 269 270 282 292 297 295 302 304 295 282 276 269 267 267 269 266 245 233 215 200 188 180 176 173 176 177 166 169 171 169 168 176 173 168 160 159 160 155 148 143 139 131 116 61 52 58 76 131 139